Volver al catálogo

CZ-6A DEB

ActivoSSO
NORAD 56616·DEBRIS·🇨🇳 China

Lanzado Nov 11, 2022 desde Taiyuan Satellite Launch Center

Loading…

Próximos Pases (próximas 24 horas)

TLE

ActualizadoSource: Space-Track

Época: Sep 13, 2026, 05:23 UTC

1 56616U 22151AEQ 26256.22443480  .00000170  00000-0  11429-3 0  9991
2 56616  98.8245 258.8126 0033259  55.4884 304.9421 14.12956502174909

Sigue CZ-6A DEB en tiempo real con AllMySat

Download on the App Store